Starlink 35272

operational
NORAD ID: 65899 Int'l Des: 2025-224 Owner: SPXS Country: US Constellation: starlink
LEOCIRCULAR

Über Starlink 35272

Beschreibung wird geladen...

Live-Position

3D-Globus wird geladen...

Nächste Überflüge

Höhenverlauf

Altitude vs Time

uPlot chart will show altitude changes over time

Zweizeiliger Elementsatz

1 65899U 25224T 25340.71751757 .00098732 00000-0 32906-2 0 9997
2 65899 53.1619 82.9170 0001474 113.6192 246.4964 15.30308628 10631
Epoch: 6. Dez. 2025 • Age: 14 hours

Aktueller Status

Höhe 481.6 km
Geschwindigkeit 7.62 km/s
Subsatellitenpunkt -22.03°S, 121.74°W
Startdatum 7. Okt. 2025
Alter 0.1 years
Typ internet

Technische Details

Klassifizierung Payload
Masse 575.00 kg
Trockenmasse 530.00 kg
Gesamtmasse 575.00 kg
Länge 0.30 m
Durchmesser 4.10 m
Spannweite 29.00 m
Form Box + pan
Hersteller SPXS
Bus-Typ Starlink V2MO
Phasenstatus In Orbit
Besitzer/Staat SPXS/US

Große Konstellationen

Loading constellations...